Weather History for West Palm Beach, FL

Change the Weather History Date:

Thursday, November 22, 2012

  Actual Average Record
Temperature  
Mean Temperature 66 °F 72 °F  
Max Temperature 75 °F 79 °F 89 °F (1920)
Min Temperature 57 °F 64 °F 40 °F (2006)
Degree Days  
Heating Degree Days 0 1  
Month to date heating degree days 4 1  
Since 1 July heating degree days 9 2  
Cooling Degree Days 1 7  
Month to date cooling degree days 133 190  
Year to date cooling degree days 3984 3811  
Growing Degree Days 16 (Base 50)    
Moisture  
Dew Point 50 °F    
Average Humidity 61    
Maximum Humidity 78    
Minimum Humidity 43    
Precipitation  
Precipitation 0.00 in 0.14 in 7.41 in (1984)
Month to date precipitation 0.58 3.70  
Year to date precipitation 77.43 57.90  
Snow  
Snow 0.00 in - - ()
Month to date snowfall 0.0  
Since 1 July snowfall 0.0  
Since 1 September snowfall 0.0  
Snow Depth 0.00 in    
Sea Level Pressure  
Sea Level Pressure 30.04 in    
Wind  
Wind Speed 15 mph (NNW)    
Max Wind Speed 24 mph    
Max Gust Speed 30 mph    
Visibility 10 miles    
Events      
T = Trace of Precipitation, MM = Missing Value Source: NWS Daily Summary

Daily Weather History Graph

Daily Weather History Graph

Search for Another Location

Airport:

Trip Planner

Search our weather history database for the weather conditions in past years. The results will help you decide how hot, cold, wet, or windy it might be!

Date:

Astronomy

Nov. 22, 2012 Rise Set
Actual Time 6:45 AM EST 5:27 PM EST
Civil Twilight 6:20 AM EST 5:52 PM EST
Nautical Twilight 5:52 AM EST 6:20 PM EST
Astronomical Twilight 5:24 AM EST 6:48 PM EST
Moon 1:47 PM EST (11/22) 1:31 AM EST (11/22)
Length of Visible Light 11h 32m
Length of Day
10h 42m
Waxing Gibbous, 71% of the Moon is Illuminated
Nov 22
Waxing Gibbous
Nov 28
Full
Dec 6
Last Quarter
Dec 13
New
Dec 20
First Quarter

Hourly Weather History & Observations

Time (EST) Temp. Dew Point Humidity Pressure Visibility Wind Dir Wind Speed Gust Speed Precip Events Conditions
12:53 AM 60.1 °F 50.0 °F 69% 30.01 in 10.0 mi NW 16.1 mph - N/A   Clear
1:53 AM 59.0 °F 46.9 °F 64% 30.00 in 10.0 mi NW 15.0 mph - N/A   Clear
2:53 AM 59.0 °F 48.0 °F 67% 29.99 in 10.0 mi NW 17.3 mph 23.0 mph N/A   Clear
3:53 AM 59.0 °F 48.0 °F 67% 30.00 in 10.0 mi NW 15.0 mph - N/A   Clear
4:53 AM 57.9 °F 48.9 °F 72% 30.00 in 10.0 mi NW 12.7 mph - N/A   Clear
5:53 AM 57.0 °F 48.9 °F 74% 30.01 in 10.0 mi NW 13.8 mph - N/A   Clear
6:53 AM 57.0 °F 48.9 °F 74% 30.02 in 10.0 mi NW 12.7 mph - N/A   Partly Cloudy
7:53 AM 59.0 °F 48.9 °F 69% 30.04 in 10.0 mi NW 11.5 mph - N/A   Partly Cloudy
8:53 AM 64.0 °F 50.0 °F 60% 30.06 in 10.0 mi NW 12.7 mph 25.3 mph N/A   Partly Cloudy
9:53 AM 68.0 °F 53.1 °F 59% 30.06 in 10.0 mi NW 15.0 mph - N/A   Partly Cloudy
10:53 AM 71.1 °F 53.1 °F 53% 30.05 in 10.0 mi NNW 19.6 mph 27.6 mph N/A   Partly Cloudy
11:53 AM 73.0 °F 53.1 °F 49% 30.04 in 10.0 mi NNW 16.1 mph 25.3 mph N/A   Partly Cloudy
12:53 PM 75.0 °F 51.1 °F 43% 30.02 in 10.0 mi North 23.0 mph 29.9 mph N/A   Partly Cloudy
1:53 PM 73.9 °F 51.1 °F 45% 30.01 in 10.0 mi North 17.3 mph 26.5 mph N/A   Partly Cloudy
2:53 PM 73.0 °F 52.0 °F 48% 30.01 in 10.0 mi North 20.7 mph - N/A   Partly Cloudy
3:53 PM 71.1 °F 51.1 °F 49% 30.02 in 10.0 mi North 19.6 mph 27.6 mph N/A   Partly Cloudy
4:53 PM 68.0 °F 50.0 °F 52% 30.04 in 10.0 mi NNW 18.4 mph 25.3 mph N/A   Partly Cloudy
5:53 PM 64.0 °F 50.0 °F 60% 30.06 in 10.0 mi NNW 10.4 mph - N/A   Partly Cloudy
6:53 PM 63.0 °F 48.9 °F 60% 30.08 in 10.0 mi NW 12.7 mph - N/A   Clear
7:53 PM 61.0 °F 48.0 °F 62% 30.10 in 10.0 mi NW 15.0 mph 21.9 mph N/A   Clear
8:53 PM 60.1 °F 48.0 °F 64% 30.11 in 10.0 mi NNW 13.8 mph - N/A   Clear
9:53 PM 59.0 °F 48.0 °F 67% 30.10 in 10.0 mi NW 16.1 mph - N/A   Clear
10:53 PM 57.9 °F 48.0 °F 70% 30.10 in 10.0 mi NNW 11.5 mph - N/A   Clear
11:53 PM 57.9 °F 48.9 °F 72% 30.09 in 10.0 mi NNW 15.0 mph - N/A   Clear